Tracking 19827 objects as of 21-Aug-2019
HD Live streaming from Space Station
objects crossing your sky now

COSMOS 2251 DEB

Track COSMOS 2251 DEB now!
10-day predictions


NORAD ID: 34790
Int'l Code: 1993-036AAT
Perigee: 761.9 km
Apogee: 918.7 km
Inclination: 74.1 °
Period: 101.6 minutes
Semi major axis: 7211 km
RCS: 0.0196 m2 (small)
Launch date: June 16, 1993
Source: Commonwealth of Independent States (former USSR) (CIS)
Launch site: PLESETSK MISSILE AND SPACE COMPLEX (PKMTR)

Note: This is SATELLITE DEBRIS
aabbcc
Your satellite tracking list
Your tracking list is empty




NASA's NSSDC Master Catalog

Two Line Element Set (TLE):
1 34790U 93036AAT 19232.93027400 +.00000014 +00000-0 +18436-4 0  9997
2 34790 074.0566 042.0538 0108682 302.8687 211.4936 14.17689586538483
Source of the keplerian elements: AFSPC